Location: *
(32.8667°N, 13.1833°E)
Time: 03:27:17
(UTC+00:00)

Cosmos 2034 Rocket - Pass Details

Date: 18 July 2019
Orbit: 959 x 1000 km, 82.9° (Epoch: 21 August)

Event Time Altitude Azimuth Distance (km) Brightness Sun altitude
Exits shadow 19:39:22 20° 154° (SSE) 2,098 5.2 -15.8°
Maximum altitude 19:43:27 46° 90° (E) 1,281 4.3 -16.4°
Drops below altitude 10° 19:49:23 10° 19° (NNE) 2,741 6.6 -17.4°
Sets 19:52:01 0° 14° (NNE) 3,699 7.4 -17.8°
